Location: Newark
(51.3318°N, 0.0053°E)
Time: 01:26:25
(UTC+00:00)

Envisat - Pass Details

Date: 23 January 2022
Orbit: 764 x 765 km, 98.2° (Epoch: 28 May)

Event Time Altitude Azimuth Distance (km) Brightness Sun altitude
Rises 17:30:04 0° 218° (SW) 3,222 7.3 -8.7°
Reaches altitude 10° 17:33:31 10° 243° (WSW) 2,302 7.1 -9.2°
Maximum altitude 17:36:10 14° 275° (W) 2,031 6.3 -9.6°
Drops below altitude 10° 17:38:49 10° 306° (NW) 2,310 6.0 -10.0°
Sets 17:42:18 0° 331° (NNW) 3,243 6.4 -10.5°
